KD0RXN-4 Weather Reports


Display with metric or nautical units.
time (UTC)temp
F
wind
direction
speed
MPH
gust
MPH
rain 1hr
in
rain 24hr
in
rain mn
in
humidity
%
barometer
mb
20260505070022 67 220 0.0 0.0 0.00 0.00 0.00 69 1003.0
20260505065528 67 199 0.0 0.0 0.00 0.00 0.00 68 1003.2
20260505065032 67 187 0.0 1.0 0.00 0.00 0.00 68 1003.0
20260505064536 67 192 0.0 1.0 0.00 0.00 0.00 68 1002.9
20260505064021 67 209 0.0 2.0 0.00 0.00 0.00 68 1002.9
20260505063531 67 207 0.0 2.0 0.00 0.00 0.00 68 1002.7
20260505063056 67 201 0.0 0.0 0.00 0.00 0.00 68 1002.8
20260505062520 67 215 0.0 2.0 0.00 0.00 0.00 68 1002.8
20260505062025 67 189 0.0 2.0 0.00 0.00 0.00 68 1002.8
20260505061531 67 200 0.0 0.0 0.00 0.00 0.00 68 1002.7
20260505061055 67 177 0.0 0.0 0.00 0.00 0.00 68 1002.7
20260505060518 67 213 0.0 0.0 0.00 0.00 0.00 68 1002.7
20260505060023 67 227 0.0 1.0 0.00 0.00 0.00 68 1002.8
20260505055527 67 231 0.0 1.0 0.00 0.00 0.00 68 1002.9
20260505055025 67 203 0.0 1.0 0.00 0.00 0.00 68 1002.8
20260505054527 67 185 0.0 1.0 0.00 0.00 0.00 68 1002.9
20260505054032 67 207 0.0 1.0 0.00 0.00 0.00 68 1003.0
20260505053520 67 199 0.0 0.0 0.00 0.00 0.00 68 1003.0
20260505053027 67 200 0.0 1.0 0.00 0.00 0.00 67 1003.1
20260505052531 67 192 0.0 1.0 0.00 0.00 0.00 67 1003.3
20260505052036 67 162 0.0 1.0 0.00 0.00 0.00 67 1003.3
20260505051521 67 192 0.0 0.0 0.00 0.00 0.00 68 1003.4
20260505051025 68 211 0.0 0.0 0.00 0.00 0.00 67 1003.2
20260505050530 68 201 0.0 0.0 0.00 0.00 0.00 67 1003.1
20260505041543 69 175 0.0 1.0 0.00 0.00 0.00 65 1003.3
20260505041027 69 153 0.0 0.0 0.00 0.00 0.00 64 1003.4
20260505040552 70 188 0.0 0.0 0.00 0.00 0.00 64 1003.6
20260505040036 70 163 0.0 0.0 0.00 0.00 0.00 63 1003.8
20260505035522 70 185 0.0 0.0 0.00 0.00 0.00 63 1003.8
20260505035026 70 194 0.0 0.0 0.00 0.00 0.00 62 1003.6
20260505034532 70 190 0.0 0.0 0.00 0.00 0.00 62 1003.5
20260505034037 71 231 0.0 8.0 0.00 0.00 0.00 62 1003.4
20260505033542 71 229 1.0 8.0 0.00 0.00 0.00 62 1003.6
20260505033045 71 223 0.0 3.0 0.00 0.00 0.00 61 1003.3
20260505032529 71 206 0.0 6.0 0.00 0.00 0.00 61 1003.3
20260505032055 71 222 1.0 9.0 0.00 0.00 0.00 60 1003.4
20260505031539 71 208 1.0 4.0 0.00 0.00 0.00 60 1003.3
20260505031028 72 227 1.0 5.0 0.00 0.00 0.00 60 1003.3
20260505030532 72 219 1.0 5.0 0.00 0.00 0.00 59 1003.2
20260505030018 72 213 0.0 9.0 0.00 0.00 0.00 59 1003.1
20260505025523 72 236 1.0 10.0 0.00 0.00 0.00 59 1003.2
20260505025029 72 222 2.0 8.0 0.00 0.00 0.00 59 1003.1
20260505024534 72 256 2.0 8.0 0.00 0.00 0.00 59 1003.1
20260505024040 73 190 0.0 4.0 0.00 0.00 0.00 59 1003.0
20260505023524 73 176 1.0 6.0 0.00 0.00 0.00 58 1002.9
20260505023029 73 205 1.0 6.0 0.00 0.00 0.00 58 1003.1
20260505022557 73 213 0.0 5.0 0.00 0.00 0.00 57 1003.0
20260505022020 73 199 1.0 5.0 0.00 0.00 0.00 57 1003.0
20260505021525 73 230 0.0 2.0 0.00 0.00 0.00 57 1003.1
20260505021035 73 239 0.0 4.0 0.00 0.00 0.00 57 1003.0
20260505020520 73 182 0.0 5.0 0.00 0.00 0.00 56 1002.6
20260505020047 73 174 0.0 5.0 0.00 0.00 0.00 56 1002.6
20260505015531 73 203 0.0 4.0 0.00 0.00 0.00 56 1002.5
20260505015056 74 229 0.0 2.0 0.00 0.00 0.00 56 1002.6
20260505014520 74 212 0.0 2.0 0.00 0.00 0.00 56 1002.6
20260505014026 74 204 0.0 1.0 0.00 0.00 0.00 55 1002.7
20260505013531 74 218 0.0 1.0 0.00 0.00 0.00 55 1002.6
20260505013036 74 220 0.0 1.0 0.00 0.00 0.00 54 1002.3
20260505012521 74 224 0.0 3.0 0.00 0.00 0.00 54 1002.3
20260505012027 75 214 0.0 6.0 0.00 0.00 0.00 54 1002.3
20260505011532 75 225 0.0 8.0 0.00 0.00 0.00 53 1002.3
20260505011020 75 188 0.0 8.0 0.00 0.00 0.00 52 1002.2
20260505010524 75 184 0.0 3.0 0.00 0.00 0.00 52 1002.2
20260505010029 76 246 0.0 1.0 0.00 0.00 0.00 52 1002.2
20260505005555 76 213 0.0 3.0 0.00 0.00 0.00 51 1002.0
20260505005018 76 192 0.0 6.0 0.00 0.00 0.00 52 1002.0
20260505004524 76 192 1.0 6.0 0.00 0.00 0.00 52 1002.0
20260505004029 76 211 0.0 5.0 0.00 0.00 0.00 52 1001.9
20260505003535 76 215 0.0 2.0 0.00 0.00 0.00 52 1001.8
20260505003020 76 203 0.0 3.0 0.00 0.00 0.00 51 1001.8
20260505002525 77 225 0.0 3.0 0.00 0.00 0.00 50 1001.8
20260505002031 77 211 0.0 2.0 0.00 0.00 0.00 50 1001.9
20260505001520 77 211 1.0 7.0 0.00 0.00 0.00 49 1001.8
20260505001044 77 198 0.0 7.0 0.00 0.00 0.00 49 1001.9
20260505000549 78 198 1.0 3.0 0.00 0.00 0.00 49 1001.9
20260505000033 78 190 0.0 3.0 0.00 0.00 0.00 49 1001.9
20260504235558 78 199 0.0 2.0 0.00 0.00 0.00 49 1002.0
20260504235022 79 178 0.0 4.0 0.00 0.00 0.00 48 1001.9
20260504234527 79 232 0.0 8.0 0.00 0.00 0.00 48 1001.9
20260504234032 79 207 2.0 8.0 0.00 0.00 0.00 47 1001.9
20260504233518 79 186 1.0 7.0 0.00 0.00 0.00 46 1001.9
20260504233044 79 220 1.0 7.0 0.00 0.00 0.00 46 1001.9
20260504232526 80 221 2.0 7.0 0.00 0.00 0.00 46 1002.0
20260504232031 80 240 1.0 9.0 0.00 0.00 0.00 46 1002.0
20260504231536 80 200 1.0 10.0 0.00 0.00 0.00 46 1002.0
20260504231025 80 200 1.0 8.0 0.00 0.00 0.00 47 1002.0
20260504230530 80 254 0.0 9.0 0.00 0.00 0.00 47 1002.1
20260504230036 80 194 1.0 9.0 0.00 0.00 0.00 47 1002.0
20260504225521 80 203 1.0 6.0 0.00 0.00 0.00 47 1002.0
20260504225026 80 161 0.0 9.0 0.00 0.00 0.00 47 1002.0
20260504224532 80 275 1.0 9.0 0.00 0.00 0.00 46 1002.1
20260504224017 80 212 0.0 7.0 0.00 0.00 0.00 46 1002.0
20260504223522 80 197 1.0 11.0 0.00 0.00 0.00 47 1002.1
20260504223028 80 213 3.0 11.0 0.00 0.00 0.00 46 1002.1
20260504222534 80 200 1.0 5.0 0.00 0.00 0.00 46 1002.1
20260504222021 80 177 1.0 13.0 0.00 0.00 0.00 45 1002.3
20260504221525 80 218 3.0 13.0 0.00 0.00 0.00 46 1002.2
20260504221050 80 231 3.0 12.0 0.00 0.00 0.00 46 1002.2
20260504220534 80 213 2.0 12.0 0.00 0.00 0.00 46 1002.2
20260504220018 80 259 1.0 10.0 0.00 0.00 0.00 47 1002.2
20260504215523 80 211 1.0 6.0 0.00 0.00 0.00 47 1002.3
20260504215048 80 200 1.0 13.0 0.00 0.00 0.00 47 1002.3
20260504214552 79 229 1.0 7.0 0.00 0.00 0.00 47 1002.3
20260504214017 79 188 1.0 7.0 0.00 0.00 0.00 47 1002.3
20260504213523 79 284 1.0 10.0 0.00 0.00 0.00 47 1002.3
20260504213028 79 202 1.0 10.0 0.00 0.00 0.00 47 1002.3
20260504212533 79 232 1.0 14.0 0.00 0.00 0.00 47 1002.3
20260504212018 79 202 2.0 14.0 0.00 0.00 0.00 47 1002.5
20260504211528 80 188 3.0 14.0 0.00 0.00 0.00 47 1002.5
20260504211032 80 186 1.0 10.0 0.00 0.00 0.00 46 1002.6
20260504210518 80 189 2.0 13.0 0.00 0.00 0.00 45 1002.5
20260504210043 81 201 4.0 13.0 0.00 0.00 0.00 45 1002.5
20260504205527 81 208 2.0 16.0 0.00 0.00 0.00 46 1002.5
20260504205032 80 202 3.0 16.0 0.00 0.00 0.00 45 1002.6
20260504204517 80 246 2.0 11.0 0.00 0.00 0.00 45 1002.7
20260504204023 81 175 2.0 6.0 0.00 0.00 0.00 45 1002.8
20260504203528 80 239 1.0 12.0 0.00 0.00 0.00 45 1002.7
20260504203033 81 193 4.0 12.0 0.00 0.00 0.00 43 1002.8
20260504202518 81 234 3.0 10.0 0.00 0.00 0.00 44 1003.0
20260504202028 80 265 2.0 13.0 0.00 0.00 0.00 45 1003.0
20260504201533 81 227 3.0 13.0 0.00 0.00 0.00 44 1003.1
20260504201037 80 217 2.0 10.0 0.00 0.00 0.00 45 1003.0
20260504200522 81 232 1.0 16.0 0.00 0.00 0.00 44 1003.1
20260504200048 81 212 3.0 11.0 0.00 0.00 0.00 45 1003.2
20260504195531 80 228 1.0 10.0 0.00 0.00 0.00 45 1003.4
20260504195035 80 201 2.0 8.0 0.00 0.00 0.00 45 1003.4
20260504194519 80 200 1.0 12.0 0.00 0.00 0.00 45 1003.3
20260504194044 80 200 2.0 12.0 0.00 0.00 0.00 45 1003.6
20260504193530 80 156 2.0 11.0 0.00 0.00 0.00 45 1003.5
20260504193035 80 219 1.0 10.0 0.00 0.00 0.00 45 1003.5
20260504192520 80 194 2.0 15.0 0.00 0.00 0.00 45 1003.6
20260504192029 80 275 3.0 15.0 0.00 0.00 0.00 45 1003.7
20260504191533 80 231 2.0 14.0 0.00 0.00 0.00 45 1003.7
20260504191018 80 226 3.0 11.0 0.00 0.00 0.00 45 1003.6
20260504190543 80 229 1.0 12.0 0.00 0.00 0.00 44 1003.7
20260504190047 80 200 1.0 12.0 0.00 0.00 0.00 45 1003.7
20260504185531 80 245 1.0 7.0 0.00 0.00 0.00 46 1003.7
20260504185057 79 206 1.0 9.0 0.00 0.00 0.00 46 1003.8
20260504184520 79 207 1.0 11.0 0.00 0.00 0.00 45 1003.9
20260504184045 79 207 2.0 13.0 0.00 0.00 0.00 44 1003.9
20260504183528 79 257 3.0 14.0 0.00 0.00 0.00 45 1003.8
20260504183036 80 266 2.0 14.0 0.00 0.00 0.00 45 1003.9
20260504182520 80 246 1.0 11.0 0.00 0.00 0.00 46 1003.9
20260504182026 79 259 1.0 13.0 0.00 0.00 0.00 45 1003.9
20260504181529 79 230 2.0 13.0 0.00 0.00 0.00 45 1004.0
20260504181018 80 215 2.0 10.0 0.00 0.00 0.00 45 1004.0
20260504180524 80 238 0.0 3.0 0.00 0.00 0.00 46 1003.9
20260504180029 80 200 0.0 13.0 0.00 0.00 0.00 46 1004.0
20260504175534 79 200 1.0 13.0 0.00 0.00 0.00 46 1004.0
20260504175019 78 229 2.0 15.0 0.00 0.00 0.00 46 1004.0
20260504174545 78 244 3.0 15.0 0.00 0.00 0.00 46 1004.0
20260504174049 78 258 1.0 14.0 0.00 0.00 0.00 46 1004.0
20260504173532 78 199 2.0 14.0 0.00 0.00 0.00 46 1004.0
20260504173018 78 252 1.0 16.0 0.00 0.00 0.00 47 1004.0
20260504172522 77 244 2.0 16.0 0.00 0.00 0.00 47 1004.0
20260504172027 77 255 3.0 14.0 0.00 0.00 0.00 47 1004.0
20260504171552 77 216 3.0 11.0 0.00 0.00 0.00 47 1003.9
20260504171019 77 264 2.0 15.0 0.00 0.00 0.00 47 1004.0
20260504170544 77 207 4.0 15.0 0.00 0.00 0.00 46 1003.9
20260504151031 73 255 5.0 18.0 0.00 0.00 0.00 48 1004.4
20260504150556 72 257 3.0 14.0 0.00 0.00 0.00 49 1004.4
20260504141033 69 218 2.0 10.0 0.00 0.00 0.00 53 1005.3
20260504140519 68 201 3.0 10.0 0.00 0.00 0.00 54 1005.3
20260504130523 66 207 2.0 10.0 0.00 0.00 0.00 57 1005.7
20260504110521 64 227 1.0 8.0 0.00 0.00 0.00 55 1005.9
20260504100536 65 215 0.0 3.0 0.00 0.00 0.00 55 1006.5
20260504081529 66 242 1.0 4.0 0.00 0.00 0.00 54 1006.6
20260504081054 66 224 1.0 4.0 0.00 0.00 0.00 54 1006.6
20260504080519 66 234 0.0 4.0 0.00 0.00 0.00 54 1006.6